Tracking 30692 objects as of 16-Jun-2025
HD Live streaming from Space Station
objects crossing your sky now

DELTA 1 DEB

Track DELTA 1 DEB now!
10-day predictions


NORAD ID: 21433
Int'l Code: 1975-052DR
Perigee: 1,034.2 km
Apogee: 1,123.7 km
Inclination: 99.7 °
Period: 106.7 minutes
Semi major axis: 7449 km
RCS: 0.129 m2 (medium)
Launch date: June 12, 1975
Source: United States (US)
Launch site: AIR FORCE WESTERN TEST RANGE (AFWTR)

Note: This is SATELLITE DEBRIS
Your satellite tracking list
Your tracking list is empty




NASA's NSSDC Master Catalog

Two Line Element Set (TLE):
1 21433U 75052DR  25167.45609384  .00000210  00000-0  39310-3 0  9994
2 21433  99.7008 333.7064 0060057  70.7581 312.8917 13.50114680678753
Source of the keplerian elements: AFSPC